User: anonymous   Login
Location: Zagreb
(45.8000°N, 16.0000°E)
Time: 23:39:06
(UTC+01:00)
Language:

NUDT-PHONESAT - Orbit

View from above orbital plane
View from above orbital plane
View from above satellite
View from above satellite

Ground track
Ground track

The orbit data is extracted from the following two-line orbital elements,

1 40900U 15049B   20304.08643301  .00003516  00000-0  14505-3 0  9999
2 40900  97.4299 313.9090 0011064 224.3617 209.6345 15.24669701283707
Epoch (UTC): 30 October 2020 02:04:27
Eccentricity: 0.0011064
inclination: 97.4299°
perigee height: 484 km
apogee height: 499 km
right ascension of ascending node: 313.9090°
argument of perigee: 224.3617°
revolutions per day: 15.24669701
mean anomaly at epoch: 209.6345°
orbit number at epoch: 28370

The dashed part of the orbit path shows where the satellite is in the earth's shadow,  

DLR